Wind_Speed
10 8 7 6 5 4 3 3 2 2 2 1 1 2 2 2 2 3 3 4 4 5 5 5 7 8 9 9 9 10 11 11 10 10 10 9 9 8 8 8 7 7 6
9 8 7 6 5 4 4 3 3 2 2 1 1 1 1 1 1 2 2 3 3 4 5 5 6 7 7 9 10 11 12 12 11 11 11 11 11 11 10 10 10 9 8
9 7 7 6 5 4 4 3 3 2 2 2 1 1 1 0 0 1 2 2 3 3 4 4 5 6 6 7 8 9 10 12 12 13 13 13 13 13 12 11 11 11 11
9 8 7 6 5 5 4 3 3 2 2 2 1 2 2 1 1 1 1 2 2 2 2 3 4 4 5 6 7 8 9 10 12 12 13 13 14 14 14 13 12 12 12
9 8 7 6 6 5 4 4 3 3 2 2 2 2 1 1 1 1 1 1 2 2 3 3 3 4 4 5 5 6 6 7 9 10 11 12 12 13 14 14 14 14 14
10 9 7 7 7 6 5 4 4 3 3 2 2 1 1 0 1 1 1 2 2 3 3 4 4 4 4 4 4 5 6 6 7 7 9 10 11 12 12 14 14 14 14
10 10 9 8 8 7 6 5 4 3 3 2 2 1 1 1 1 1 1 1 2 3 3 4 5 5 4 4 4 4 5 5 5 6 7 8 10 11 12 12 13 14 15
11 10 10 9 9 8 7 6 5 4 3 2 2 1 2 1 1 2 2 2 2 3 3 4 5 6 6 5 5 4 5 5 5 5 5 6 7 8 10 11 12 13 14
13 11 10 10 10 9 8 7 6 5 4 3 2 2 2 2 2 2 2 2 3 3 4 5 5 5 6 6 6 6 6 6 6 6 6 6 6 7 8 9 11 12 12
14 13 11 11 10 9 9 8 7 6 5 5 4 4 3 3 3 3 3 4 4 4 5 5 6 6 7 7 7 7 7 7 7 7 7 7 7 8 9 9 10 10 11
15 14 13 12 11 10 10 9 8 8 7 6 6 6 6 6 6 6 6 6 6 6 7 7 8 8 8 8 9 9 9 9 10 10 10 10 11 11 11 11 12 12 12
15 15 14 13 12 12 12 11 10 10 9 8 8 8 8 9 9 9 9 9 9 10 10 11 11 11 11 11 11 12 12 12 12 12 12 13 13 13 13 14 13 13 14
15 14 14 14 14 14 13 12 12 12 11 11 11 11 11 12 12 12 12 13 13 13 14 14 14 15 15 15 15 15 15 15 15 16 15 15 15 16 16 16 16 16 16
15 15 15 14 14 15 14 14 14 14 14 14 14 14 14 14 15 15 16 16 16 16 17 17 18 18 19 19 19 19 19 19 19 19 19 19 19 19 19 19 19 19 19
15 15 15 15 15 15 16 16 15 15 16 16 16 16 17 17 18 19 19 20 20 20 20 21 21 21 22 22 22 23 23 23 23 24 23 23 23 23 23 23 23 23 23
16 16 16 16 16 16 16 17 17 17 18 18 18 19 20 20 20 21 22 23 23 24 24 25 25 25 25 26 26 26 27 27 27 27 27 27 27 27 27 27 27 26 26
16 17 16 16 16 16 16 17 18 18 19 20 20 22 22 23 23 24 25 26 27 27 28 29 29 29 29 30 30 30 30 31 31 31 31 31 31 31 31 31 31 31 31
16 16 16 16 16 17 17 18 18 19 20 21 23 24 25 26 26 27 28 29 30 31 32 32 33 33 33 34 34 34 34 35 35 35 35 35 35 35 35 35 35 35 35
17 17 16 17 17 18 18 19 20 21 21 23 24 25 26 27 28 29 31 32 33 33 34 35 35 37 37 37 37 38 38 39 39 39 39 38 38 39 39 40 40 39 39
17 17 18 18 19 20 20 21 22 22 23 24 25 27 28 28 30 31 32 33 35 36 37 37 38 39 40 40 40 40 41 41 42 43 42 42 41 41 42 43 43 43 43
17 19 19 19 20 21 22 23 23 24 25 26 27 28 29 31 32 34 35 36 37 38 39 40 41 41 42 42 43 43 43 44 44 45 45 45 45 45 45 46 46 46 46
19 20 21 21 21 21 22 23 24 25 26 27 28 30 31 31 33 35 37 38 39 40 41 42 43 44 44 45 46 47 47 47 47 47 49 49 49 48 48 48 48 48 48
19 20 21 21 22 23 23 25 26 28 28 29 30 31 32 34 35 36 38 39 41 42 43 44 45 46 47 48 49 49 50 51 50 50 51 50 50 51 50 50 50 50 51
20 20 21 22 23 24 26 27 28 29 31 32 33 34 35 37 39 40 41 42 43 45 46 47 49 50 51 52 53 53 54 55 54 54 54 54 53 54 54 53 53 52 53
22 23 24 24 25 26 27 29 31 32 34 35 36 38 39 41 42 43 44 46 47 48 49 51 52 53 54 55 56 57 57 57 57 57 58 58 58 57 56 55 55 55 55
24 25 26 27 27 28 29 31 33 35 36 38 39 41 42 43 45 46 47 49 50 51 52 53 55 56 57 58 59 59 59 59 59 58 59 60 60 59 58 56 56 56 56
Wind_Direction
227 226 227 226 223 225 227 236 229 225 229 230 240 240 230 228 246 263 279 281 271 267 267 262 261 255 252 246 249 248 247 245 247 248 248 248 248 251 253 253 251 251 254
226 225 222 215 220 228 230 230 224 224 219 197 195 200 214 237 267 270 289 285 286 285 277 272 268 266 265 254 252 250 246 247 247 250 250 248 248 250 252 255 254 253 255
226 224 214 217 222 225 223 216 203 201 185 176 170 170 171 157 23 311 318 308 302 301 290 280 277 276 270 262 258 259 253 250 251 251 251 252 252 252 252 253 254 255 256
220 217 219 223 219 217 213 196 181 180 174 166 151 148 147 125 42 11 345 335 331 324 321 303 293 285 279 272 265 266 263 262 258 257 256 254 254 252 252 253 254 255 256
217 218 220 216 211 208 205 191 180 169 161 152 138 125 124 72 46 18 12 11 6 357 343 338 326 309 301 289 275 276 274 273 268 261 259 257 255 253 252 254 255 256 257
213 217 219 212 206 204 199 190 184 176 164 156 151 137 116 65 41 9 11 17 17 7 356 354 349 341 328 316 295 290 285 282 274 265 261 260 258 256 256 255 254 257 260
214 218 221 213 207 206 204 200 199 195 188 189 198 215 243 278 320 349 4 11 15 12 8 3 358 355 348 329 313 306 306 299 287 280 270 263 261 261 260 259 256 258 260
216 217 217 213 211 211 211 210 208 204 205 209 222 240 250 271 295 313 325 339 345 350 354 354 354 354 353 349 334 323 316 311 307 298 290 278 272 267 267 265 263 264 263
214 212 213 215 214 214 215 216 215 214 215 218 225 241 252 259 281 303 310 312 318 326 332 335 338 339 337 336 338 333 323 316 312 315 310 301 288 282 281 278 273 271 271
213 213 214 215 216 216 218 220 222 224 226 233 241 251 259 268 278 286 290 296 304 311 317 320 322 323 321 321 319 319 320 316 313 310 309 308 304 296 291 288 283 279 278
215 216 218 219 220 221 223 225 228 233 238 245 256 263 266 271 276 280 281 284 289 296 302 306 310 312 311 310 309 309 308 308 307 304 303 302 299 295 289 286 286 283 281
219 219 222 224 225 226 227 230 233 238 245 252 259 264 268 272 275 277 280 283 286 290 294 297 299 302 302 302 301 301 302 302 300 298 297 295 293 291 288 286 285 284 282
220 221 224 226 227 229 231 235 239 243 249 254 259 265 268 272 275 277 279 282 286 288 291 293 295 296 296 296 296 296 296 296 295 295 294 292 291 290 288 285 283 282 282
220 223 227 229 230 232 236 239 243 248 254 258 262 266 270 274 276 278 280 282 284 286 288 290 292 293 293 293 292 292 292 291 292 292 291 290 289 288 287 285 282 281 280
223 227 228 231 234 237 240 243 247 253 257 261 265 269 272 274 277 279 280 281 283 285 286 287 289 290 291 291 290 289 289 289 288 288 288 287 286 285 285 284 283 281 279
223 224 229 235 239 241 243 247 251 257 261 265 268 271 272 274 276 279 281 282 283 285 286 286 287 288 288 289 288 288 288 287 287 286 286 285 284 283 282 282 282 281 280
226 231 235 242 243 245 248 252 256 260 264 267 270 273 274 276 277 278 280 282 283 284 285 286 286 286 286 286 286 286 286 286 285 284 284 284 283 282 281 281 280 279 278
231 236 243 246 249 251 254 257 260 264 268 271 273 274 276 278 279 279 280 282 282 283 283 284 285 286 286 286 286 285 285 284 283 283 282 282 281 280 280 279 279 278 277
236 239 244 249 251 254 257 260 263 266 270 273 274 275 277 279 280 281 281 282 283 284 284 284 285 285 286 285 285 284 284 284 283 282 281 280 280 279 278 277 277 276 276
240 244 247 251 255 258 262 264 267 270 273 276 277 277 278 281 282 283 284 284 285 285 285 285 285 285 285 285 284 284 283 284 283 281 281 280 279 278 278 277 276 275 275
243 247 249 253 258 263 265 266 270 273 276 278 279 281 282 283 284 285 286 286 287 286 286 286 286 285 285 284 285 285 284 283 282 282 281 280 278 277 277 276 275 274 273
251 252 255 256 261 266 267 269 272 277 279 280 282 284 285 286 286 287 287 287 288 288 287 287 287 286 284 284 284 284 283 283 283 281 280 280 279 278 276 275 274 273 273
257 259 262 262 265 268 271 273 276 279 281 283 284 286 287 288 288 288 288 289 289 288 288 287 287 286 286 285 284 284 283 283 283 282 280 279 278 278 276 275 274 274 273
264 266 269 272 273 274 276 278 279 281 282 284 286 287 288 289 289 289 289 289 289 289 289 288 287 287 286 284 284 283 283 282 282 281 280 279 277 277 277 276 276 274 273
267 271 273 274 276 277 279 282 283 284 285 286 288 289 290 291 290 290 291 291 291 290 289 288 287 286 285 285 284 284 283 282 281 280 279 278 277 277 277 276 275 274 273
271 273 275 276 278 280 282 283 285 287 288 288 288 290 291 292 292 292 292 291 291 290 289 289 288 287 286 285 285 284 284 283 281 280 279 278 277 276 275 275 274 274 273
Height
5876 5878 5879 5880 5880 5881 5882 5883 5883 5883 5884 5884 5884 5884 5884 5885 5886 5886 5887 5887 5888 5888 5888 5889 5889 5890 5891 5892 5893 5894 5895 5896 5897 5898 5899 5899 5900 5901 5902 5902 5903 5903 5904
5875 5876 5878 5879 5880 5881 5881 5882 5882 5883 5884 5884 5884 5884 5885 5885 5886 5886 5887 5887 5887 5887 5888 5888 5889 5889 5890 5890 5891 5892 5893 5894 5895 5896 5897 5898 5899 5899 5900 5900 5901 5902 5903
5874 5876 5877 5878 5879 5880 5881 5882 5882 5883 5883 5884 5884 5884 5885 5885 5886 5886 5886 5886 5886 5887 5887 5887 5888 5888 5888 5889 5890 5890 5891 5892 5893 5894 5894 5895 5896 5897 5898 5899 5899 5900 5901
5873 5875 5876 5877 5878 5879 5880 5881 5882 5883 5883 5883 5884 5884 5885 5885 5886 5886 5886 5886 5886 5886 5887 5887 5887 5887 5887 5887 5888 5889 5889 5890 5891 5891 5892 5893 5894 5895 5895 5896 5897 5898 5898
5872 5874 5875 5876 5878 5879 5880 5881 5882 5882 5883 5883 5884 5884 5885 5885 5885 5886 5886 5886 5886 5886 5886 5886 5887 5886 5886 5886 5887 5887 5887 5888 5888 5889 5890 5890 5891 5892 5893 5894 5894 5895 5896
5871 5872 5874 5876 5877 5878 5879 5880 5881 5882 5882 5883 5884 5884 5885 5885 5885 5885 5886 5886 5886 5886 5886 5886 5886 5886 5886 5886 5886 5886 5886 5886 5886 5887 5887 5888 5888 5889 5890 5891 5891 5892 5893
5869 5871 5873 5875 5876 5878 5879 5880 5881 5881 5882 5883 5884 5884 5884 5885 5885 5885 5886 5886 5886 5886 5886 5886 5886 5886 5886 5886 5885 5885 5885 5885 5885 5885 5885 5886 5886 5887 5887 5888 5888 5889 5890
5867 5870 5872 5873 5875 5877 5878 5879 5880 5881 5882 5882 5883 5884 5884 5885 5885 5885 5885 5886 5886 5886 5886 5886 5886 5886 5886 5885 5885 5885 5885 5884 5884 5884 5884 5884 5884 5884 5885 5885 5886 5886 5887
5866 5868 5870 5872 5874 5876 5877 5878 5879 5880 5881 5882 5882 5883 5884 5884 5884 5885 5885 5885 5885 5885 5885 5885 5885 5885 5885 5885 5884 5884 5884 5884 5883 5883 5883 5883 5883 5883 5883 5883 5883 5883 5883
5864 5866 5868 5870 5873 5874 5876 5877 5878 5879 5880 5881 5882 5882 5883 5883 5884 5884 5885 5884 5884 5884 5884 5884 5884 5884 5884 5884 5883 5883 5883 5882 5882 5881 5881 5881 5881 5881 5881 5881 5880 5880 5880
5862 5864 5866 5869 5871 5873 5874 5876 5877 5878 5879 5880 5880 5881 5881 5882 5882 5883 5883 5883 5883 5883 5883 5883 5883 5883 5882 5882 5882 5881 5881 5881 5880 5880 5879 5879 5879 5878 5878 5878 5878 5877 5877
5860 5862 5864 5867 5869 5871 5872 5874 5875 5876 5877 5878 5879 5879 5880 5880 5880 5881 5881 5881 5881 5881 5881 5881 5881 5881 5880 5880 5879 5879 5878 5878 5878 5877 5877 5876 5876 5875 5875 5875 5874 5874 5874
5858 5860 5862 5864 5866 5868 5870 5871 5873 5874 5875 5876 5877 5877 5877 5878 5878 5878 5878 5879 5879 5879 5878 5878 5878 5878 5877 5877 5876 5876 5875 5875 5874 5874 5873 5873 5872 5872 5871 5871 5870 5870 5870
5855 5857 5860 5862 5864 5866 5867 5869 5870 5871 5872 5873 5874 5874 5875 5875 5875 5875 5875 5875 5875 5875 5875 5875 5874 5874 5873 5873 5872 5872 5871 5870 5870 5869 5869 5868 5868 5867 5867 5866 5866 5865 5865
5852 5855 5857 5859 5861 5863 5865 5866 5867 5868 5869 5870 5871 5871 5871 5872 5872 5872 5872 5872 5872 5871 5871 5871 5870 5869 5868 5868 5867 5867 5866 5865 5865 5864 5863 5863 5862 5862 5861 5861 5860 5860 5859
5850 5852 5854 5856 5858 5860 5861 5863 5864 5865 5866 5867 5867 5867 5867 5867 5868 5867 5867 5867 5866 5866 5865 5865 5865 5864 5863 5862 5861 5861 5860 5859 5858 5858 5857 5856 5855 5855 5854 5854 5853 5853 5852
5847 5849 5851 5853 5855 5857 5858 5859 5860 5861 5862 5862 5863 5863 5863 5863 5862 5862 5862 5861 5861 5860 5859 5859 5858 5857 5856 5855 5855 5854 5853 5852 5851 5850 5849 5849 5848 5847 5847 5846 5845 5845 5844
5844 5846 5848 5850 5852 5853 5854 5855 5856 5857 5857 5857 5857 5857 5857 5857 5857 5856 5856 5855 5854 5853 5853 5852 5850 5849 5849 5847 5846 5845 5844 5843 5843 5842 5841 5840 5839 5838 5838 5837 5836 5836 5835
5841 5843 5845 5847 5848 5849 5850 5850 5851 5851 5852 5852 5852 5851 5851 5851 5850 5849 5849 5848 5847 5846 5845 5844 5842 5841 5840 5838 5837 5836 5835 5833 5832 5832 5831 5830 5829 5828 5827 5827 5826 5825 5825
5838 5839 5841 5842 5843 5844 5845 5845 5846 5846 5846 5846 5845 5845 5844 5844 5843 5842 5841 5839 5838 5837 5836 5834 5833 5831 5830 5828 5827 5826 5824 5823 5821 5819 5819 5818 5818 5817 5816 5815 5814 5814 5813
5834 5835 5837 5838 5839 5839 5839 5839 5840 5840 5840 5839 5838 5838 5837 5836 5835 5833 5832 5831 5829 5828 5826 5824 5822 5821 5819 5817 5815 5814 5812 5811 5809 5808 5806 5806 5805 5804 5804 5802 5801 5800 5800
5830 5831 5832 5832 5833 5834 5834 5834 5834 5834 5833 5832 5831 5830 5829 5828 5826 5824 5823 5821 5819 5817 5815 5813 5811 5809 5807 5805 5803 5801 5799 5798 5797 5795 5792 5792 5790 5790 5789 5788 5787 5786 5786
5826 5826 5827 5827 5828 5828 5828 5827 5827 5826 5826 5825 5823 5822 5821 5819 5817 5815 5813 5811 5808 5806 5804 5802 5799 5797 5794 5792 5790 5787 5785 5783 5781 5780 5777 5777 5775 5774 5773 5773 5772 5772 5771
5821 5822 5822 5822 5822 5822 5821 5821 5820 5819 5818 5816 5815 5814 5812 5809 5807 5805 5802 5800 5797 5794 5792 5789 5786 5783 5780 5777 5774 5772 5770 5767 5766 5763 5761 5760 5759 5758 5757 5756 5755 5754 5754
5816 5816 5816 5815 5815 5815 5814 5813 5812 5811 5809 5807 5806 5804 5801 5799 5796 5794 5791 5788 5785 5781 5778 5775 5772 5768 5765 5761 5758 5755 5752 5750 5749 5747 5743 5741 5741 5740 5740 5739 5738 5736 5736
5809 5809 5809 5808 5808 5807 5806 5805 5803 5802 5800 5798 5796 5794 5791 5788 5785 5781 5778 5775 5771 5767 5763 5760 5756 5752 5748 5744 5740 5737 5734 5731 5729 5728 5724 5722 5721 5720 5721 5722 5719 5718 5717